VHHHVMMC

Guest
Details From VHHH - Hong Kong Intl
To VMMC - Macau Intl
Flight Number -
Tags generated
Created
Modified
Stats Distance 24 nm / 44 km
Max Altitude 1,400 ft / 427 m
Waypoints 3
Social Downloads 0
Likes 0
Share VATSIM

Download

Looking for another format? Having issues loading an existing format? Contact us
Advertisement - Login to hide

Notes

Basic altitude profile: - Ascent Rate: 2500ft/min - Ascent Speed: 250kts - Cruise Altitude: 14000ft - Cruise Speed: 420kts - Descent Rate: 1500ft/min - Descent Speed: 250kts Options: - Use NATs: no - Use PACOTS: no - Use low airways: yes - Use high airways: no

Route

VHHH TAMOT VMMC

ID Type Via Altitude Latitude Longitude Leg Dist Tot Dist Heading (true) Name
O VHHH APT - 0 ft / 0 m 22.30899˚ 113.91461˚ - 0 nm - Hong Kong Intl
TAMOT FIX - 1,400 ft / 427 m 22.35833˚ 113.86667˚ 3 nm 3 nm 318° / 318° -
O VMMC APT - 0 ft / 0 m 22.14867˚ 113.59141˚ 19 nm 23 nm 231° / 230° Macau Intl

Altitude Profile

Advertisement - Login to hide

VHHH

Details ICAO VHHH (HKG)
Name Hong Kong Intl
Region Hong Kong
Timezone Unknown (UTC+0.0)
Stats Elevation 28 ft / 9 m (AMSL)
Location 22.308995° 113.914610°
Runways 2
Magnetic Variation 2.822° W

METAR

VHHH 180330Z 34008KT 6000 NSC 13/01 Q1027 NOSIG

Decode

TAF

TAF VHHH 172300Z 1800/1906 36010KT 7000 NSC TX15/1806Z TX17/1906Z TN10/1823Z

Decode

Departure Runways

ID Width Length Bearing (true) Bearing (mag) Surface Threshold Offset Overrun Length
07L 197 ft / 60 m 12,457 ft / 3,797 m 70.79° 73.61° Asphalt 564 ft / 172 m 866 ft / 264 m
07R 197 ft / 60 m 12,458 ft / 3,797 m 70.79° 73.61° Asphalt 525 ft / 160 m 886 ft / 270 m
25L 197 ft / 60 m 12,458 ft / 3,797 m 250.80° 253.62° Asphalt 0 ft / 0 m 840 ft / 256 m
25R 197 ft / 60 m 12,457 ft / 3,797 m 250.80° 253.62° Asphalt 581 ft / 177 m 860 ft / 262 m

VMMC

Details ICAO VMMC (MFM)
Name Macau Intl
Region Macau
Timezone Unknown (UTC+0.0)
Stats Elevation 20 ft / 6 m (AMSL)
Location 22.148675° 113.591412°
Runways 1
Magnetic Variation 2.745° W

METAR

VMMC 180330Z 35017KT 7000 NSC 12/02 Q1027 NOSIG

Decode

TAF

TAF VMMC 172300Z 1800/1906 36020KT 7000 NSC

Decode

Destination Runways

ID Width Length Bearing (true) Bearing (mag) Surface Threshold Offset Overrun Length
16 148 ft / 45 m 10,584 ft / 3,226 m 160.29° 163.03° Concrete 1,195 ft / 364 m 155 ft / 47 m
34 148 ft / 45 m 10,584 ft / 3,226 m 340.29° 343.03° Concrete 1,215 ft / 370 m 185 ft / 56 m

Approach Navaids

Runway Type Ident Frequency Range Bearing (true) Bearing (mag) Slope Elevation
16 Localiser MCS 111.70 MHz 18 nm / 33 km 214.85° 217.59° - 20 ft / 6 m (AMSL)
16 DME MCS 111.70 MHz 18 nm / 33 km - - - 286 ft / 87 m (AMSL)
34 Localiser MCN 109.70 MHz 18 nm / 33 km 341.45° 344.20° - 20 ft / 6 m (AMSL)
34 Glidescope MCN 109.70 MHz 10 nm / 19 km 340.29° 343.04° 3.00° 20 ft / 6 m (AMSL)
34 DME MCN 109.70 MHz 18 nm / 33 km - - - 13 ft / 4 m (AMSL)

Popular Alternatives